Location: Kapuskasing
(49.3803°N, 82.4001°W)
Time: 11:12:33
(UTC-04:00)

Envisat - Pass Details

Date: 21 March 2026
Orbit: 761 x 762 km, 98.4° (Epoch: 19 April)

Event Time Altitude Azimuth Distance (km) Brightness Sun altitude
Rises 04:53:51 0° 10° (N) 3,237 6.9 -24.9°
Reaches altitude 10° 04:56:13 10° 5° (N) 2,306 5.9 -24.6°
Enters shadow 05:00:58 49° 297° (WNW) 983 3.3 -23.9°
